星链-35735(STARLINK-35735)

导读 | 豆包AI

STARLINK-35735是美国SpaceX公司星链星座的一颗卫星,于2025年10月28日发射入轨。星链星座旨在为全球提供高速低延迟宽带互联网服务,尤其覆盖传统基础设施匮乏的偏远地区,这颗卫星加入后进一步扩充了星链的网络容量与覆盖范围。截至2026年初,星链在轨运营卫星已超9600颗,服务覆盖超100个国家,拥有超过600万活跃用户,STARLINK-35735将助力星链继续提升全球网络服务的稳定性与速率。

Basic Information
目录编号:
66231
目录名称:
STARLINK-35735
国际标识:
2025-244AB
轨道中心:
EARTH
卫星名称:
星链-35735
卫星全名:
星链-35735(STARLINK-35735)
卫星状态:
在轨 (已飞行209 天)
发射日期:
2025-10-28 UTC
国别 :
美国 (US)
星等 :
--
Orbit Information
数据来源 国际轨道数据 AOE轨道数据
星历时间 2026-05-25T07:40:05+0800
13小时前
查看轨道信息
2026-05-24T05:00:00+0800
1天前
查看轨道信息
半长轴 6853.338km 6853.39km
偏心率 0.0001214 0.0000815
轨道倾角 53.159° 53.159°
近地点辐角 87.501° 34.800°
升交点赤经 235.315° 240.477°
平近点角 272.613° 320.792°
近地点 474.369km 474.694km
远地点 476.033km 475.812km
周期 94.105分钟 94.106分钟
每日圈数 15.302048 15.301876
Detailed Information
固有亮度:
5
最大亮度:
2.5
卫星平台:
Starlink V1.0
覆盖范围:
全球
运营商:
太空探索技术公司
运营商所在国:
美国
制造商(研发单位):
太空探索技术公司
制造商所在国:
美国
使用方式:
暂无
Satellite Introduction
Starlink 计划是 SpaceX 推出的全球卫星互联网项目,通过发射低轨道卫星,为全球尤其是偏远地区提供高速、低延迟的互联网服务。自 2019 年起,Starlink 已部署数千颗卫星,旨在缩小全球数字鸿沟,推动互联网普及。该项目还为军事、航空等行业提供通信支持,带来广泛经济效益。
2D Orbit Map
3D Orbit Map
Orbit Altitude Analysis Chart
Orbit Inclination Analysis Chart
Orbit Comprehensive Analysis Chart
View Comprehensive Chart